Regional Weather Roundup
Issued by NWS Green Bay, WI

Home | Current Version | Previous Version | Graphics & Text | Print | Product List | Glossary Off
Versions: 1 2 3 4 5 6 7 8 9 10 11 12 13 14 15 16 17 18 19 20 21 22 23 24 25 26 27 28 29 30 31 32 33 34 35 36 37 38 39 40 41 42 43 44 45 46 47 48 49 50

000
ASUS43 KGRB 311159
RWRGRB

NORTH-CENTRAL AND NORTHEAST WISCONSIN REGIONAL WEATHER ROUNDUP
NATIONAL WEATHER SERVICE GREEN BAY WI
700 AM CDT THU JUL 31 2014

WIZ005-009-010>012-018-019-311300-
NORTH CENTRAL WISCONSIN

CITY           SKY/WX    TMP DP  RH WIND       PRES   REMARKS
IRONWOOD       NOT AVBL
MANITOWISH WTR NOT AVBL
ARBOR VITAE    NOT AVBL
EAGLE RIVER    NOT AVBL
LAND O LAKES   NOT AVBL
RHINELANDER    FOG       56  55  97 W3        30.00S VSB<1/4
PHILLIPS       FOG       56  56 100 CALM      30.00S VSB<1/4
ANTIGO         NOT AVBL
TOMAHAWK       NOT AVBL
MERRILL        NOT AVBL
$$

WIZ013-073-311300-
NORTHEAST WISCONSIN

CITY           SKY/WX    TMP DP  RH WIND       PRES   REMARKS
IRON MOUNTAIN  SUNNY     53  51  93 CALM      29.95S
MARINETTE      MOSUNNY   54  52  94 CALM      29.95S
$$

WIZ017-030-035>037-045-311300-
CENTRAL WISCONSIN

CITY           SKY/WX    TMP DP  RH WIND       PRES   REMARKS
MEDFORD        NOT AVBL
WAUSAU         SUNNY     59  58  96 NW6       29.99R
MOSINEE        SUNNY     57  57 100 W5        30.01S
MARSHFIELD     SUNNY     59  57  93 NW8       30.00S
WISC RAPIDS    SUNNY     59  58  96 NW3       30.01S
STEVENS POINT  NOT AVBL
WAUPACA        SUNNY     61  59  94 CALM      29.99S
SHAWANO        SUNNY     56  55  95 SW3       29.98S
CLINTONVILLE   SUNNY     57  55  94 CALM      29.98F
$$

WIZ038-039-048-051-311300-
FOX VALLEY

CITY           SKY/WX    TMP DP  RH WIND       PRES   REMARKS
NWS GREEN BAY  SUNNY     57  57 100 CALM      29.98R
APPLETON       MOSUNNY   57  57 100 W8        29.99S
OSHKOSH        SUNNY     62  58  86 W3        29.98S
FOND DU LAC    SUNNY     60  57  89 SW5       30.00R
$$

WIZ022-050-052-311300-
EAST CENTRAL WISCONSIN

CITY           SKY/WX    TMP DP  RH WIND       PRES   REMARKS
STURGEON BAY   SUNNY     57  54  88 CALM      29.97S
MANITOWOC      NOT AVBL
SHEBOYGAN      MOSUNNY   59  58  96 CALM      29.99R
$$

LMZ563-521-522-541>543-311300-
LAKESHORE

STATION/POSITION TIME  TEMP    WIND        PRES    VSBY  WAVE
                       AIR SEA DIR/SP/G                  HT/PER
                 (UTC) (F)     (DEG/KT/KT) (MB)    (MI)  (FT/S)
SHEBOYGAN LKSHOR 1100   62     260/  6/  7 1015.2R
KEWAUNEE LKSHORE 1100   56     140/  3/  4 1014.2R
NORTHPORT PIER   1100   57     250/  4/  6 1014.2S
N MID LAKE BUOY  1100   55 52  230/  6/  6 1013.6R         1
S GREEN BAY BUOY 1100   62 66  270/  4     1015.7R
CHAMBERS ISLAND  1100   53      CALM  /  2 1014.6S
MENOMINEE LKSHOR 1100   57     230/  4/  5 1015.0F
$$


USA.gov is the U.S. government's official web portal to all federal, state and local government web resources and services.